sat.trackr.live / text

‹ back to catalog

STARLINK-2734

NORAD 48657 · 2021-044V

PAYLOAD ACTIVE UNKNOWN

§ Identity

Operator
Country
US
Launch date
2021-05-26
Launch site
AFETR
Launch vehicle
Mass (kg)
RCS (m²)

Purposes: comms

External: N2YO · Heavens-Above · Gunter

§ Orbital elements

Epoch: 2026-05-25T04:33:51.996960Z

Period
94.01 min
Inclination
53.1588°
Eccentricity
0.0001313
Mean motion
15.31707028 rev/d
Perigee alt
469.8 km
Apogee alt
471.6 km
Semi-major
6,848.9 km
B*
4.8289e-5
RAAN
118.1481°
Arg perigee
88.1970°
Mean anomaly
271.9181°
Rev number
27,554

§ Raw data

STARLINK-27341 48657U 21044V   26145.19018515  .00001134  00000+0  48289-4 0  99922 48657  53.1588 118.1481 0001313  88.1970 271.9181 15.31707028275543

JSON: /api/v1/satellites/48657 · /tle

For live sub-satellite position, see the globe view (requires WebGL).

§ Visibility from observer

Set your observer location to see the next 7 days of passes ≥ 10°. The values pass through the URL so the page stays shareable.

No JS? Fill the form by hand. The geolocation button needs JavaScript.